TimeEST,TemperatureF,Dew PointF,Humidity,Sea Level PressureIn,VisibilityMPH,Wind Direction,Wind SpeedMPH,Gust SpeedMPH,PrecipitationIn,Events,Conditions,WindDirDegrees,DateUTC
12:15 AM,10.4,-0.4,62,30.19,10.0,Calm,Calm,-,N/A,,Clear,0,2013-01-06 05:15:00
12:35 AM,10.4,-4.0,52,30.19,10.0,Calm,Calm,-,N/A,,Clear,0,2013-01-06 05:35:00
12:55 AM,8.6,6.8,92,30.18,10.0,Calm,Calm,-,N/A,,Clear,0,2013-01-06 05:55:00
1:15 AM,8.6,-9999,N/A,30.18,10.0,East,3.5,-,N/A,,Clear,80,2013-01-06 06:15:00
1:35 AM,10.4,-0.4,62,30.18,10.0,Calm,Calm,-,N/A,,Clear,0,2013-01-06 06:35:00
1:55 AM,10.4,-5.8,48,30.20,10.0,Calm,Calm,-,N/A,,Clear,0,2013-01-06 06:55:00
2:15 AM,12.2,-7.6,41,30.19,10.0,West,3.5,-,N/A,,Clear,260,2013-01-06 07:15:00
2:35 AM,12.2,10.4,92,30.19,10.0,Calm,Calm,-,N/A,,Clear,0,2013-01-06 07:35:00
2:55 AM,12.2,-9999,N/A,30.16,10.0,Calm,Calm,-,N/A,,Clear,0,2013-01-06 07:55:00
3:15 AM,14.0,14.0,100,30.16,10.0,Calm,Calm,-,N/A,,Mostly Cloudy,0,2013-01-06 08:15:00
3:35 AM,14.0,1.4,57,30.14,10.0,Calm,Calm,-,N/A,,Overcast,0,2013-01-06 08:35:00
3:55 AM,15.8,-4.0,41,30.13,10.0,Calm,Calm,-,N/A,,Overcast,0,2013-01-06 08:55:00
4:15 AM,15.8,-2.2,45,30.11,10.0,Calm,Calm,-,N/A,,Overcast,0,2013-01-06 09:15:00
4:35 AM,15.8,6.8,68,30.10,10.0,Calm,Calm,-,N/A,,Overcast,0,2013-01-06 09:35:00
4:55 AM,17.6,3.2,53,30.10,10.0,Calm,Calm,-,N/A,,Overcast,0,2013-01-06 09:55:00
5:15 AM,17.6,12.2,79,30.08,10.0,Calm,Calm,-,N/A,,Overcast,0,2013-01-06 10:15:00
5:35 AM,17.6,10.4,73,30.08,10.0,WSW,3.5,-,N/A,,Mostly Cloudy,250,2013-01-06 10:35:00
5:55 AM,19.4,15.8,86,30.08,7.0,WSW,4.6,-,N/A,,Overcast,250,2013-01-06 10:55:00
6:15 AM,19.4,15.8,86,30.07,7.0,Calm,Calm,-,N/A,,Overcast,0,2013-01-06 11:15:00
6:35 AM,19.4,15.8,86,30.06,5.0,Calm,Calm,-,N/A,,Mostly Cloudy,0,2013-01-06 11:35:00
6:55 AM,19.4,15.8,86,30.06,5.0,Calm,Calm,-,N/A,,Overcast,0,2013-01-06 11:55:00
7:15 AM,19.4,14.0,80,30.05,5.0,Calm,Calm,-,N/A,,Overcast,0,2013-01-06 12:15:00
7:35 AM,19.4,12.2,74,30.05,5.0,Calm,Calm,-,N/A,,Overcast,0,2013-01-06 12:35:00
7:55 AM,19.4,15.8,86,30.04,2.5,Calm,Calm,-,N/A,,Overcast,0,2013-01-06 12:55:00
8:15 AM,19.4,14.0,80,30.03,7.0,Calm,Calm,-,N/A,,Overcast,0,2013-01-06 13:15:00
8:35 AM,19.4,17.6,93,30.03,9.0,Calm,Calm,-,N/A,,Overcast,0,2013-01-06 13:35:00
8:55 AM,21.2,15.8,80,30.02,10.0,Calm,Calm,-,N/A,,Overcast,0,2013-01-06 13:55:00
9:15 AM,19.4,17.6,93,30.02,10.0,Calm,Calm,-,N/A,,Overcast,0,2013-01-06 14:15:00
9:35 AM,21.2,15.8,80,30.02,10.0,Calm,Calm,-,N/A,,Overcast,0,2013-01-06 14:35:00
9:55 AM,28.4,28.4,100,30.01,10.0,SW,3.5,-,N/A,,Mostly Cloudy,220,2013-01-06 14:55:00
10:15 AM,30.2,23.0,75,30.01,10.0,SSW,4.6,-,N/A,,Mostly Cloudy,210,2013-01-06 15:15:00
10:35 AM,30.2,30.2,100,29.99,10.0,West,9.2,-,N/A,,Clear,260,2013-01-06 15:35:00
10:55 AM,30.2,19.4,64,29.98,10.0,SW,6.9,-,N/A,,Clear,230,2013-01-06 15:55:00
11:15 AM,32.0,30.2,93,29.97,10.0,SW,9.2,-,N/A,,Clear,220,2013-01-06 16:15:00
11:35 AM,32.0,30.2,93,29.95,10.0,SW,9.2,-,N/A,,Clear,230,2013-01-06 16:35:00
11:55 AM,33.8,17.6,52,29.94,10.0,SW,11.5,-,N/A,,Clear,220,2013-01-06 16:55:00
12:15 PM,33.8,30.2,87,29.93,10.0,SW,9.2,-,N/A,,Clear,230,2013-01-06 17:15:00
12:35 PM,35.6,33.8,93,29.93,10.0,SW,11.5,-,0.01,,Clear,230,2013-01-06 17:35:00
1:15 PM,35.6,24.8,65,29.91,10.0,West,11.5,-,N/A,,Clear,260,2013-01-06 18:15:00
1:35 PM,35.6,33.8,93,29.91,10.0,West,11.5,-,N/A,,Partly Cloudy,270,2013-01-06 18:35:00
1:55 PM,35.6,33.8,93,29.91,10.0,West,10.4,-,0.01,,Mostly Cloudy,280,2013-01-06 18:55:00
2:15 PM,35.6,32.0,87,29.92,10.0,West,10.4,-,N/A,,Overcast,260,2013-01-06 19:15:00
2:35 PM,35.6,30.2,81,29.92,10.0,West,6.9,-,N/A,,Overcast,260,2013-01-06 19:35:00
2:56 PM,35.6,26.6,70,29.92,10.0,West,8.1,-,N/A,,Mostly Cloudy,270,2013-01-06 19:56:00
3:15 PM,35.6,28.4,75,29.91,10.0,West,5.8,-,N/A,,Scattered Clouds,260,2013-01-06 20:15:00
3:35 PM,35.6,28.4,75,29.91,10.0,WSW,4.6,-,N/A,,Scattered Clouds,250,2013-01-06 20:35:00
3:55 PM,33.8,26.6,75,29.90,10.0,SSW,3.5,-,N/A,,Clear,210,2013-01-06 20:55:00
4:15 PM,30.2,24.8,80,29.91,10.0,SW,3.5,-,N/A,,Clear,220,2013-01-06 21:15:00
4:35 PM,26.6,24.8,93,29.91,10.0,Calm,Calm,-,N/A,,Clear,0,2013-01-06 21:35:00
4:55 PM,24.8,24.8,100,29.91,10.0,Calm,Calm,-,N/A,,Clear,0,2013-01-06 21:55:00
5:15 PM,21.2,19.4,93,29.92,10.0,SW,3.5,-,N/A,,Clear,230,2013-01-06 22:15:00
5:35 PM,21.2,12.2,68,29.92,10.0,WSW,3.5,-,N/A,,Partly Cloudy,250,2013-01-06 22:35:00
5:55 PM,23.0,6.8,50,29.92,10.0,WSW,3.5,-,N/A,,Scattered Clouds,240,2013-01-06 22:55:00
6:15 PM,21.2,15.8,80,29.92,10.0,SW,3.5,-,N/A,,Overcast,220,2013-01-06 23:15:00
6:35 PM,23.0,-9999,N/A,29.92,10.0,WSW,3.5,-,N/A,,Overcast,240,2013-01-06 23:35:00
7:15 PM,24.8,6.8,46,29.92,10.0,WSW,3.5,-,N/A,,Overcast,250,2013-01-07 00:15:00
7:35 PM,26.6,26.6,100,29.92,10.0,WSW,4.6,-,N/A,,Overcast,240,2013-01-07 00:35:00
7:55 PM,26.6,24.8,93,29.93,10.0,WSW,3.5,-,N/A,,Overcast,240,2013-01-07 00:55:00
8:15 PM,28.4,15.8,59,29.93,10.0,WSW,3.5,-,N/A,,Overcast,240,2013-01-07 01:15:00
8:35 PM,32.0,32.0,100,29.92,10.0,WSW,6.9,-,N/A,,Overcast,250,2013-01-07 01:35:00
8:55 PM,32.0,17.6,55,29.92,10.0,WSW,4.6,-,N/A,,Overcast,240,2013-01-07 01:55:00
9:15 PM,32.0,30.2,93,29.92,10.0,West,4.6,-,N/A,,Overcast,260,2013-01-07 02:15:00
9:35 PM,30.2,30.2,100,29.92,10.0,West,3.5,-,N/A,,Overcast,260,2013-01-07 02:35:00
9:55 PM,28.4,14.0,55,29.92,10.0,Calm,Calm,-,N/A,,Overcast,0,2013-01-07 02:55:00
10:15 PM,30.2,30.2,100,29.92,10.0,Calm,Calm,-,N/A,,Overcast,0,2013-01-07 03:15:00
10:35 PM,28.4,24.8,86,29.92,10.0,SW,3.5,-,N/A,,Overcast,220,2013-01-07 03:35:00
10:55 PM,24.8,8.6,50,29.92,10.0,Calm,Calm,-,N/A,,Overcast,0,2013-01-07 03:55:00
11:15 PM,24.8,6.8,46,29.92,10.0,WSW,3.5,-,N/A,,Overcast,240,2013-01-07 04:15:00
11:35 PM,24.8,24.8,100,29.92,10.0,WSW,8.1,-,N/A,,Overcast,250,2013-01-07 04:35:00
11:55 PM,26.6,26.6,100,29.92,10.0,WSW,6.9,-,N/A,,Overcast,240,2013-01-07 04:55:00